| time (UTC) | temp F | wind direction | speed knots | gust knots | rain 1hr in | rain 24hr in | rain mn in | humidity % | barometer mb |
| 20260507223538 | 71 | 0 | 0.0 | 4.3 | 0.00 | 0.00 | 0.00 | 47 | 1018.2 |
| 20260507223058 | 72 | 0 | 0.0 | 2.6 | 0.00 | 0.00 | 0.00 | 45 | 1018.3 |
| 20260507222536 | 71 | 107 | 0.0 | 2.6 | 0.00 | 0.00 | 0.00 | 48 | 1018.3 |
| 20260507222038 | 71 | 107 | 0.9 | 2.6 | 0.00 | 0.00 | 0.00 | 45 | 1018.3 |
| 20260507221547 | 71 | 340 | 0.0 | 1.7 | 0.00 | 0.00 | 0.00 | 51 | 1018.2 |
| 20260507221037 | 71 | 198 | 0.0 | 3.5 | 0.00 | 0.00 | 0.00 | 47 | 1018.3 |
| 20260507220537 | 71 | 68 | 0.9 | 4.3 | 0.00 | 0.00 | 0.00 | 49 | 1018.3 |
| 20260507220046 | 71 | 63 | 0.9 | 4.3 | 0.00 | 0.00 | 0.00 | 45 | 1018.2 |
| 20260507215538 | 71 | 0 | 0.0 | 2.6 | 0.00 | 0.00 | 0.00 | 46 | 1018.3 |
| 20260507215038 | 70 | 70 | 0.9 | 7.0 | 0.00 | 0.00 | 0.00 | 46 | 1018.3 |
| 20260507214549 | 70 | 238 | 0.0 | 7.0 | 0.00 | 0.00 | 0.00 | 48 | 1018.5 |
| 20260507214042 | 70 | 202 | 2.6 | 7.0 | 0.00 | 0.00 | 0.00 | 46 | 1018.6 |
| 20260507213539 | 70 | 43 | 0.9 | 6.1 | 0.00 | 0.00 | 0.00 | 49 | 1018.7 |
| 20260507213047 | 69 | 148 | 0.9 | 6.1 | 0.00 | 0.00 | 0.00 | 52 | 1018.7 |
| 20260507212541 | 69 | 82 | 1.7 | 6.1 | 0.00 | 0.00 | 0.00 | 50 | 1018.8 |
| 20260507212041 | 68 | 14 | 1.7 | 6.1 | 0.00 | 0.00 | 0.00 | 50 | 1018.9 |
| 20260507211556 | 68 | 129 | 1.7 | 5.2 | 0.00 | 0.00 | 0.00 | 51 | 1019.0 |
| 20260507211037 | 68 | 0 | 0.9 | 3.5 | 0.00 | 0.00 | 0.00 | 54 | 1019.1 |
| 20260507210539 | 68 | 60 | 2.6 | 6.1 | 0.00 | 0.00 | 0.00 | 50 | 1019.1 |
| 20260507210105 | 67 | 56 | 1.7 | 6.1 | 0.00 | 0.00 | 0.00 | 56 | 1019.1 |
| 20260507205539 | 66 | 107 | 0.9 | 6.1 | 0.00 | 0.00 | 0.00 | 53 | 1019.2 |
| 20260507205038 | 66 | 11 | 0.0 | 4.3 | 0.00 | 0.00 | 0.00 | 58 | 1019.2 |
| 20260507204549 | 66 | 148 | 0.9 | 4.3 | 0.00 | 0.00 | 0.00 | 54 | 1019.3 |
| 20260507204037 | 65 | 156 | 0.9 | 6.1 | 0.00 | 0.00 | 0.00 | 55 | 1019.2 |
| 20260507203537 | 66 | 187 | 1.7 | 6.1 | 0.00 | 0.00 | 0.00 | 54 | 1019.4 |
| 20260507203045 | 67 | 150 | 1.7 | 4.3 | 0.00 | 0.00 | 0.00 | 53 | 1019.4 |
| 20260507202536 | 67 | 87 | 0.0 | 4.3 | 0.00 | 0.00 | 0.00 | 58 | 1019.5 |
| 20260507202037 | 67 | 86 | 0.0 | 4.3 | 0.00 | 0.00 | 0.00 | 61 | 1019.6 |
| 20260507201547 | 66 | 49 | 1.7 | 5.2 | 0.00 | 0.00 | 0.00 | 61 | 1019.6 |
| 20260507201039 | 65 | 0 | 1.7 | 5.2 | 0.00 | 0.00 | 0.00 | 62 | 1019.5 |
| 20260507200541 | 64 | 289 | 0.9 | 8.7 | 0.00 | 0.00 | 0.00 | 58 | 1019.6 |
| 20260507200054 | 63 | 250 | 0.9 | 8.7 | 0.00 | 0.00 | 0.00 | 60 | 1019.7 |
| 20260507195541 | 64 | 173 | 0.9 | 6.1 | 0.00 | 0.00 | 0.00 | 59 | 1019.6 |
| 20260507195041 | 64 | 159 | 0.9 | 6.1 | 0.00 | 0.00 | 0.00 | 61 | 1019.7 |
| 20260507194555 | 65 | 159 | 1.7 | 6.1 | 0.00 | 0.00 | 0.00 | 57 | 1019.8 |
| 20260507194039 | 65 | 0 | 0.9 | 3.5 | 0.00 | 0.00 | 0.00 | 57 | 1019.9 |
| 20260507193542 | 65 | 131 | 0.9 | 2.6 | 0.00 | 0.00 | 0.00 | 60 | 1019.9 |
| 20260507193050 | 65 | 124 | 0.9 | 2.6 | 0.00 | 0.00 | 0.00 | 60 | 1019.9 |
| 20260507192539 | 64 | 29 | 1.7 | 3.5 | 0.00 | 0.00 | 0.00 | 64 | 1020.0 |
| 20260507192039 | 63 | 0 | 0.9 | 3.5 | 0.00 | 0.00 | 0.00 | 66 | 1020.0 |
| 20260507191552 | 63 | 0 | 0.9 | 3.5 | 0.00 | 0.00 | 0.00 | 62 | 1020.2 |
| 20260507191039 | 63 | 180 | 0.9 | 4.3 | 0.00 | 0.00 | 0.00 | 62 | 1020.3 |
| 20260507190539 | 62 | 42 | 0.9 | 5.2 | 0.00 | 0.00 | 0.00 | 64 | 1020.3 |
| 20260507190056 | 62 | 186 | 1.7 | 5.2 | 0.00 | 0.00 | 0.00 | 65 | 1020.4 |
| 20260507185538 | 62 | 159 | 2.6 | 5.2 | 0.00 | 0.00 | 0.00 | 61 | 1020.5 |
| 20260507185038 | 62 | 44 | 0.9 | 4.3 | 0.00 | 0.00 | 0.00 | 64 | 1020.6 |
| 20260507184550 | 62 | 0 | 0.9 | 4.3 | 0.00 | 0.00 | 0.00 | 64 | 1020.6 |
| 20260507184042 | 62 | 167 | 0.9 | 4.3 | 0.00 | 0.00 | 0.00 | 63 | 1020.6 |
| 20260507183538 | 62 | 5 | 1.7 | 4.3 | 0.00 | 0.00 | 0.00 | 65 | 1020.6 |
| 20260507183112 | 62 | 115 | 0.0 | 4.3 | 0.00 | 0.00 | 0.00 | 62 | 1020.6 |
| 20260507182539 | 62 | 184 | 0.9 | 4.3 | 0.00 | 0.00 | 0.00 | 63 | 1020.6 |
| 20260507182039 | 62 | 168 | 0.9 | 4.3 | 0.00 | 0.00 | 0.00 | 66 | 1020.7 |
| 20260507181551 | 61 | 69 | 0.0 | 5.2 | 0.00 | 0.00 | 0.00 | 66 | 1020.7 |
| 20260507181038 | 61 | 182 | 1.7 | 5.2 | 0.00 | 0.00 | 0.00 | 62 | 1020.9 |
| 20260507180540 | 62 | 325 | 0.9 | 3.5 | 0.00 | 0.00 | 0.00 | 60 | 1020.9 |
| 20260507180052 | 62 | 5 | 0.9 | 3.5 | 0.00 | 0.00 | 0.00 | 65 | 1020.9 |
| 20260507175538 | 61 | 0 | 0.9 | 4.3 | 0.00 | 0.00 | 0.00 | 65 | 1020.9 |
| 20260507175038 | 61 | 184 | 0.9 | 4.3 | 0.00 | 0.00 | 0.00 | 63 | 1021.0 |
| 20260507174600 | 62 | 350 | 1.7 | 4.3 | 0.00 | 0.00 | 0.00 | 63 | 1021.1 |
| 20260507174042 | 61 | 43 | 0.9 | 3.5 | 0.00 | 0.00 | 0.00 | 66 | 1021.1 |
| 20260507173538 | 60 | 75 | 0.9 | 3.5 | 0.00 | 0.00 | 0.00 | 66 | 1021.1 |
| 20260507173050 | 60 | 0 | 1.7 | 4.3 | 0.00 | 0.00 | 0.00 | 65 | 1021.1 |
| 20260507172543 | 60 | 86 | 0.9 | 4.3 | 0.00 | 0.00 | 0.00 | 66 | 1021.1 |
| 20260507172038 | 60 | 59 | 2.6 | 4.3 | 0.00 | 0.00 | 0.00 | 65 | 1021.0 |
| 20260507171548 | 60 | 20 | 0.9 | 3.5 | 0.00 | 0.00 | 0.00 | 67 | 1021.0 |
| 20260507171040 | 59 | 311 | 0.0 | 3.5 | 0.00 | 0.00 | 0.00 | 68 | 1021.1 |
| 20260507170540 | 59 | 89 | 0.9 | 3.5 | 0.00 | 0.00 | 0.00 | 66 | 1021.1 |
| 20260507170047 | 58 | 101 | 0.9 | 3.5 | 0.00 | 0.00 | 0.00 | 68 | 1021.1 |
| 20260507165541 | 57 | 48 | 0.9 | 2.6 | 0.00 | 0.00 | 0.00 | 70 | 1021.1 |
| 20260507165041 | 57 | 0 | 0.0 | 2.6 | 0.00 | 0.00 | 0.00 | 70 | 1021.0 |
| 20260507164615 | 56 | 50 | 0.0 | 2.6 | 0.00 | 0.00 | 0.00 | 73 | 1021.1 |
| 20260507164041 | 55 | 0 | 0.9 | 3.5 | 0.00 | 0.00 | 0.00 | 72 | 1021.1 |
| 20260507163540 | 55 | 72 | 0.0 | 3.5 | 0.00 | 0.00 | 0.00 | 71 | 1021.0 |
| 20260507163054 | 55 | 48 | 0.9 | 3.5 | 0.00 | 0.00 | 0.00 | 74 | 1021.1 |
| 20260507162538 | 55 | 63 | 1.7 | 3.5 | 0.00 | 0.00 | 0.00 | 73 | 1021.0 |
| 20260507162040 | 55 | 67 | 0.9 | 2.6 | 0.00 | 0.00 | 0.00 | 72 | 1021.1 |
| 20260507161556 | 55 | 67 | 0.9 | 2.6 | 0.00 | 0.00 | 0.00 | 73 | 1021.1 |
| 20260507161039 | 54 | 67 | 0.9 | 3.5 | 0.00 | 0.00 | 0.00 | 74 | 1021.1 |
| 20260507160541 | 54 | 67 | 0.9 | 3.5 | 0.00 | 0.00 | 0.00 | 73 | 1021.2 |
| 20260507160051 | 54 | 62 | 0.9 | 3.5 | 0.00 | 0.00 | 0.00 | 74 | 1021.1 |
| 20260507155540 | 54 | 62 | 0.9 | 3.5 | 0.00 | 0.00 | 0.00 | 73 | 1021.1 |
| 20260507155040 | 54 | 53 | 1.7 | 3.5 | 0.00 | 0.00 | 0.00 | 73 | 1021.1 |
| 20260507154556 | 54 | 25 | 0.9 | 2.6 | 0.00 | 0.00 | 0.00 | 74 | 1021.2 |
| 20260507154042 | 54 | 25 | 0.9 | 2.6 | 0.00 | 0.00 | 0.00 | 74 | 1021.2 |
| 20260507153542 | 54 | 0 | 0.9 | 2.6 | 0.00 | 0.00 | 0.00 | 74 | 1021.2 |
| 20260507153049 | 53 | 303 | 0.9 | 2.6 | 0.00 | 0.00 | 0.00 | 75 | 1021.2 |
| 20260507152543 | 53 | 303 | 0.0 | 2.6 | 0.00 | 0.00 | 0.00 | 75 | 1021.3 |
| 20260507152041 | 53 | 0 | 0.0 | 1.7 | 0.00 | 0.00 | 0.00 | 76 | 1021.3 |
| 20260507151550 | 53 | 0 | 0.0 | 1.7 | 0.00 | 0.00 | 0.00 | 77 | 1021.2 |
| 20260507151042 | 53 | 0 | 0.0 | 1.7 | 0.00 | 0.00 | 0.00 | 77 | 1021.3 |
| 20260507150538 | 52 | 0 | 0.0 | 2.6 | 0.00 | 0.00 | 0.00 | 77 | 1021.2 |
| 20260507150053 | 52 | 59 | 0.9 | 2.6 | 0.00 | 0.00 | 0.00 | 76 | 1021.2 |
| 20260507145540 | 52 | 0 | 0.0 | 2.6 | 0.00 | 0.00 | 0.00 | 78 | 1021.2 |
| 20260507145037 | 52 | 0 | 0.9 | 2.6 | 0.00 | 0.00 | 0.00 | 77 | 1021.3 |
| 20260507144549 | 52 | 59 | 0.0 | 2.6 | 0.00 | 0.00 | 0.00 | 77 | 1021.2 |
| 20260507144040 | 52 | 0 | 0.0 | 0.0 | 0.00 | 0.00 | 0.00 | 77 | 1021.2 |
| 20260507143540 | 52 | 0 | 0.0 | 0.0 | 0.00 | 0.00 | 0.00 | 79 | 1021.2 |
| 20260507143056 | 51 | 0 | 0.0 | 0.0 | 0.00 | 0.00 | 0.00 | 78 | 1021.1 |
| 20260507142540 | 51 | 0 | 0.0 | 0.0 | 0.00 | 0.00 | 0.00 | 78 | 1021.1 |
| 20260507142040 | 51 | 0 | 0.0 | 0.0 | 0.00 | 0.00 | 0.00 | 79 | 1021.1 |
| 20260507141545 | 51 | 0 | 0.0 | 0.0 | 0.00 | 0.00 | 0.00 | 78 | 1021.0 |
| 20260507141040 | 51 | 0 | 0.0 | 0.0 | 0.00 | 0.00 | 0.00 | 79 | 1021.1 |
| 20260507140540 | 51 | 0 | 0.0 | 0.0 | 0.00 | 0.00 | 0.00 | 79 | 1021.0 |
| 20260507140053 | 51 | 0 | 0.0 | 0.0 | 0.00 | 0.00 | 0.00 | 79 | 1021.1 |
| 20260507135540 | 51 | 0 | 0.0 | 0.0 | 0.00 | 0.00 | 0.00 | 79 | 1021.0 |
| 20260507135038 | 51 | 0 | 0.0 | 0.0 | 0.00 | 0.00 | 0.00 | 79 | 1021.1 |
| 20260507134550 | 51 | 0 | 0.0 | 0.0 | 0.00 | 0.00 | 0.00 | 79 | 1020.9 |
| 20260507134039 | 51 | 0 | 0.0 | 0.0 | 0.00 | 0.00 | 0.00 | 79 | 1020.9 |
| 20260507133540 | 51 | 0 | 0.0 | 0.0 | 0.00 | 0.00 | 0.00 | 79 | 1020.9 |
| 20260507133052 | 51 | 0 | 0.0 | 0.0 | 0.00 | 0.00 | 0.00 | 79 | 1020.9 |
| 20260507132541 | 51 | 0 | 0.0 | 0.0 | 0.00 | 0.00 | 0.00 | 79 | 1020.9 |
| 20260507132037 | 51 | 0 | 0.0 | 0.0 | 0.00 | 0.00 | 0.00 | 79 | 1020.9 |
| 20260507131548 | 51 | 0 | 0.0 | 0.0 | 0.00 | 0.00 | 0.00 | 79 | 1020.9 |
| 20260507131039 | 51 | 0 | 0.0 | 0.0 | 0.00 | 0.00 | 0.00 | 79 | 1020.9 |
| 20260507130543 | 51 | 0 | 0.0 | 0.0 | 0.00 | 0.00 | 0.00 | 79 | 1020.9 |
| 20260507130054 | 51 | 0 | 0.0 | 0.0 | 0.00 | 0.00 | 0.00 | 79 | 1020.9 |
| 20260507125541 | 51 | 0 | 0.0 | 0.0 | 0.00 | 0.00 | 0.00 | 80 | 1020.9 |
| 20260507125038 | 51 | 0 | 0.0 | 0.0 | 0.00 | 0.00 | 0.00 | 80 | 1020.9 |
| 20260507124559 | 51 | 0 | 0.0 | 0.0 | 0.00 | 0.00 | 0.00 | 80 | 1020.9 |
| 20260507124041 | 51 | 0 | 0.0 | 0.0 | 0.00 | 0.00 | 0.00 | 80 | 1021.0 |
| 20260507123538 | 51 | 0 | 0.0 | 0.0 | 0.00 | 0.00 | 0.00 | 80 | 1020.9 |
| 20260507123051 | 52 | 0 | 0.0 | 0.0 | 0.00 | 0.00 | 0.00 | 80 | 1021.0 |
| 20260507122540 | 52 | 0 | 0.0 | 0.0 | 0.00 | 0.00 | 0.00 | 80 | 1020.9 |
| 20260507122040 | 52 | 0 | 0.0 | 0.0 | 0.00 | 0.00 | 0.00 | 80 | 1020.9 |
| 20260507121551 | 52 | 0 | 0.0 | 0.0 | 0.00 | 0.00 | 0.00 | 80 | 1020.9 |
| 20260507121039 | 52 | 0 | 0.0 | 0.0 | 0.00 | 0.00 | 0.00 | 79 | 1021.0 |
| 20260507120542 | 52 | 0 | 0.0 | 0.0 | 0.00 | 0.00 | 0.00 | 79 | 1021.0 |
| 20260507120053 | 52 | 0 | 0.0 | 0.0 | 0.00 | 0.00 | 0.00 | 79 | 1021.1 |
| 20260507115541 | 52 | 0 | 0.0 | 0.0 | 0.00 | 0.00 | 0.00 | 80 | 1021.1 |
| 20260507115044 | 52 | 0 | 0.0 | 0.0 | 0.00 | 0.00 | 0.00 | 80 | 1021.1 |
| 20260507114605 | 52 | 0 | 0.0 | 0.0 | 0.00 | 0.00 | 0.00 | 79 | 1021.1 |
| 20260507114038 | 52 | 0 | 0.0 | 0.0 | 0.00 | 0.00 | 0.00 | 80 | 1021.1 |
| 20260507113539 | 52 | 0 | 0.0 | 0.0 | 0.00 | 0.00 | 0.00 | 80 | 1021.2 |
| 20260507113117 | 52 | 0 | 0.0 | 0.0 | 0.00 | 0.00 | 0.00 | 80 | 1021.1 |
| 20260507112538 | 52 | 0 | 0.0 | 0.0 | 0.00 | 0.00 | 0.00 | 80 | 1021.2 |
| 20260507112045 | 52 | 0 | 0.0 | 0.0 | 0.00 | 0.00 | 0.00 | 80 | 1021.3 |
| 20260507111550 | 52 | 0 | 0.0 | 0.0 | 0.00 | 0.00 | 0.00 | 80 | 1021.3 |
| 20260507111038 | 52 | 0 | 0.0 | 0.0 | 0.00 | 0.00 | 0.00 | 80 | 1021.2 |
| 20260507110541 | 52 | 0 | 0.0 | 0.0 | 0.00 | 0.00 | 0.00 | 80 | 1021.3 |
| 20260507110043 | 52 | 0 | 0.0 | 0.0 | 0.00 | 0.00 | 0.00 | 79 | 1021.3 |
| 20260507105538 | 52 | 0 | 0.0 | 0.0 | 0.00 | 0.00 | 0.00 | 80 | 1021.4 |
| 20260507105041 | 53 | 0 | 0.0 | 0.0 | 0.00 | 0.00 | 0.00 | 80 | 1021.3 |
| 20260507104552 | 53 | 0 | 0.0 | 0.0 | 0.00 | 0.00 | 0.00 | 80 | 1021.3 |
| 20260507104037 | 53 | 0 | 0.0 | 0.0 | 0.00 | 0.00 | 0.00 | 80 | 1021.4 |
| 20260507103538 | 53 | 0 | 0.0 | 0.0 | 0.00 | 0.00 | 0.00 | 79 | 1021.4 |
| 20260507103054 | 53 | 0 | 0.0 | 0.0 | 0.00 | 0.00 | 0.00 | 80 | 1021.5 |
| 20260507102543 | 53 | 0 | 0.0 | 0.0 | 0.00 | 0.00 | 0.00 | 80 | 1021.4 |
| 20260507102042 | 53 | 0 | 0.0 | 0.0 | 0.00 | 0.00 | 0.00 | 79 | 1021.4 |
| 20260507101550 | 53 | 0 | 0.0 | 0.0 | 0.00 | 0.00 | 0.00 | 79 | 1021.4 |
| 20260507101041 | 53 | 0 | 0.0 | 0.0 | 0.00 | 0.00 | 0.00 | 79 | 1021.5 |
| 20260507100541 | 53 | 0 | 0.0 | 0.0 | 0.00 | 0.00 | 0.00 | 80 | 1021.5 |
| 20260507100047 | 53 | 0 | 0.0 | 0.9 | 0.00 | 0.00 | 0.00 | 80 | 1021.5 |
| 20260507095539 | 53 | 0 | 0.0 | 0.9 | 0.00 | 0.00 | 0.00 | 79 | 1021.5 |
| 20260507095038 | 53 | 150 | 0.0 | 0.0 | 0.00 | 0.00 | 0.00 | 80 | 1021.6 |
| 20260507094550 | 53 | 0 | 0.0 | 0.0 | 0.00 | 0.00 | 0.00 | 80 | 1021.7 |
| 20260507094045 | 53 | 0 | 0.0 | 0.0 | 0.00 | 0.00 | 0.00 | 80 | 1021.6 |
| 20260507093541 | 53 | 0 | 0.0 | 0.9 | 0.00 | 0.00 | 0.00 | 80 | 1021.8 |
| 20260507093051 | 53 | 0 | 0.0 | 0.9 | 0.00 | 0.00 | 0.00 | 80 | 1021.8 |
| 20260507092538 | 53 | 0 | 0.0 | 0.9 | 0.00 | 0.00 | 0.00 | 80 | 1021.8 |
| 20260507092037 | 53 | 0 | 0.0 | 0.0 | 0.00 | 0.00 | 0.00 | 80 | 1021.9 |
| 20260507091601 | 53 | 0 | 0.0 | 0.0 | 0.00 | 0.00 | 0.00 | 80 | 1021.9 |
| 20260507091042 | 53 | 0 | 0.0 | 0.0 | 0.00 | 0.00 | 0.00 | 80 | 1021.9 |
| 20260507090542 | 53 | 0 | 0.0 | 0.0 | 0.00 | 0.00 | 0.00 | 80 | 1021.9 |
| 20260507090051 | 53 | 0 | 0.0 | 0.0 | 0.00 | 0.00 | 0.00 | 80 | 1021.9 |
| 20260507085541 | 53 | 0 | 0.0 | 0.0 | 0.00 | 0.00 | 0.00 | 80 | 1022.0 |
| 20260507085041 | 53 | 0 | 0.0 | 1.7 | 0.00 | 0.00 | 0.00 | 80 | 1021.9 |
| 20260507084557 | 53 | 0 | 0.0 | 1.7 | 0.00 | 0.00 | 0.00 | 81 | 1022.0 |
| 20260507084041 | 54 | 153 | 0.0 | 1.7 | 0.00 | 0.00 | 0.00 | 81 | 1022.0 |
| 20260507083538 | 54 | 0 | 0.0 | 0.9 | 0.00 | 0.00 | 0.00 | 80 | 1022.0 |
| 20260507083050 | 54 | 0 | 0.0 | 0.9 | 0.00 | 0.00 | 0.00 | 80 | 1021.9 |
| 20260507082542 | 54 | 0 | 0.0 | 0.0 | 0.00 | 0.00 | 0.00 | 80 | 1022.0 |
| 20260507082038 | 54 | 0 | 0.0 | 1.7 | 0.00 | 0.00 | 0.00 | 80 | 1021.9 |
| 20260507081559 | 54 | 0 | 0.0 | 1.7 | 0.00 | 0.00 | 0.00 | 80 | 1022.0 |
| 20260507081043 | 54 | 113 | 0.0 | 1.7 | 0.00 | 0.00 | 0.00 | 79 | 1021.9 |
| 20260507080537 | 54 | 0 | 0.0 | 0.0 | 0.00 | 0.00 | 0.00 | 80 | 1022.0 |
| 20260507080059 | 54 | 0 | 0.0 | 0.0 | 0.00 | 0.00 | 0.00 | 80 | 1022.0 |
| 20260507075538 | 54 | 0 | 0.0 | 0.0 | 0.00 | 0.00 | 0.00 | 80 | 1022.0 |
| 20260507075042 | 54 | 0 | 0.0 | 0.0 | 0.00 | 0.00 | 0.00 | 80 | 1021.9 |
| 20260507074557 | 54 | 0 | 0.0 | 0.0 | 0.00 | 0.00 | 0.00 | 80 | 1021.9 |
| 20260507074047 | 54 | 0 | 0.0 | 0.0 | 0.00 | 0.00 | 0.00 | 80 | 1022.0 |
| 20260507073543 | 54 | 0 | 0.0 | 0.0 | 0.00 | 0.00 | 0.00 | 80 | 1021.8 |
| 20260507073102 | 54 | 0 | 0.0 | 0.0 | 0.00 | 0.00 | 0.00 | 80 | 1021.8 |
| 20260507072538 | 54 | 0 | 0.0 | 0.0 | 0.00 | 0.00 | 0.00 | 80 | 1021.8 |
| 20260507072038 | 54 | 0 | 0.0 | 0.0 | 0.00 | 0.00 | 0.00 | 80 | 1021.7 |
| 20260507071549 | 54 | 0 | 0.0 | 0.0 | 0.00 | 0.00 | 0.00 | 80 | 1021.7 |
| 20260507071038 | 54 | 0 | 0.0 | 0.9 | 0.00 | 0.00 | 0.00 | 80 | 1021.7 |
| 20260507070624 | 54 | 0 | 0.0 | 0.9 | 0.00 | 0.00 | 0.00 | 80 | 1021.7 |
| 20260507070051 | 54 | 0 | 0.0 | 0.9 | 0.00 | 0.00 | 0.00 | 79 | 1021.8 |
| 20260507065540 | 54 | 0 | 0.0 | 1.7 | 0.00 | 0.00 | 0.00 | 80 | 1021.8 |
| 20260507065040 | 54 | 0 | 0.0 | 1.7 | 0.00 | 0.00 | 0.00 | 80 | 1021.9 |
| 20260507064551 | 54 | 0 | 0.0 | 1.7 | 0.00 | 0.00 | 0.00 | 79 | 1021.8 |
| 20260507064045 | 55 | 112 | 0.0 | 1.7 | 0.00 | 0.00 | 0.00 | 79 | 1021.8 |
| 20260507063542 | 55 | 112 | 0.0 | 1.7 | 0.00 | 0.00 | 0.00 | 79 | 1021.9 |
| 20260507063053 | 55 | 112 | 0.9 | 1.7 | 0.00 | 0.00 | 0.00 | 79 | 1021.9 |
| 20260507062541 | 55 | 0 | 0.0 | 1.7 | 0.00 | 0.00 | 0.00 | 79 | 1022.0 |
| 20260507062038 | 55 | 0 | 0.0 | 1.7 | 0.00 | 0.00 | 0.00 | 79 | 1022.0 |
| 20260507061551 | 55 | 112 | 0.0 | 1.7 | 0.00 | 0.00 | 0.00 | 79 | 1022.0 |
| 20260507061040 | 55 | 113 | 0.0 | 0.0 | 0.00 | 0.00 | 0.00 | 79 | 1021.9 |
| 20260507060542 | 55 | 0 | 0.0 | 0.9 | 0.00 | 0.00 | 0.00 | 79 | 1022.0 |
| 20260507060101 | 55 | 0 | 0.0 | 2.6 | 0.00 | 0.00 | 0.00 | 79 | 1022.0 |
| 20260507055538 | 55 | 0 | 0.9 | 2.6 | 0.00 | 0.00 | 0.00 | 78 | 1022.0 |
| 20260507055041 | 56 | 93 | 0.0 | 1.7 | 0.00 | 0.00 | 0.00 | 78 | 1021.9 |
| 20260507054543 | 56 | 0 | 0.0 | 1.7 | 0.00 | 0.00 | 0.00 | 79 | 1021.9 |
| 20260507054040 | 56 | 93 | 0.0 | 2.6 | 0.00 | 0.00 | 0.00 | 79 | 1021.9 |
| 20260507053542 | 56 | 0 | 0.0 | 4.3 | 0.00 | 0.00 | 0.00 | 78 | 1021.9 |
| 20260507053047 | 56 | 93 | 1.7 | 4.3 | 0.00 | 0.00 | 0.00 | 78 | 1021.9 |
| 20260507052544 | 56 | 0 | 0.9 | 2.6 | 0.00 | 0.00 | 0.00 | 78 | 1021.9 |
| 20260507052041 | 56 | 144 | 0.0 | 1.7 | 0.00 | 0.00 | 0.00 | 78 | 1021.9 |
| 20260507051549 | 56 | 0 | 0.0 | 4.3 | 0.00 | 0.00 | 0.00 | 78 | 1021.8 |
| 20260507051041 | 56 | 173 | 0.0 | 4.3 | 0.00 | 0.00 | 0.00 | 78 | 1021.9 |
| 20260507050538 | 56 | 173 | 0.0 | 3.5 | 0.00 | 0.00 | 0.00 | 78 | 1021.9 |
| 20260507050047 | 57 | 63 | 0.9 | 3.5 | 0.00 | 0.00 | 0.00 | 78 | 1021.9 |
| 20260507045542 | 57 | 123 | 0.9 | 2.6 | 0.00 | 0.00 | 0.00 | 77 | 1021.9 |
| 20260507045039 | 57 | 91 | 0.9 | 2.6 | 0.00 | 0.00 | 0.00 | 77 | 1021.9 |
| 20260507044559 | 57 | 0 | 0.9 | 2.6 | 0.00 | 0.00 | 0.00 | 77 | 1021.9 |
| 20260507044039 | 57 | 91 | 0.9 | 2.6 | 0.00 | 0.00 | 0.00 | 77 | 1021.9 |
| 20260507043541 | 57 | 91 | 0.0 | 2.6 | 0.00 | 0.00 | 0.00 | 78 | 1021.8 |
| 20260507043102 | 58 | 91 | 0.9 | 2.6 | 0.00 | 0.00 | 0.00 | 77 | 1021.8 |
| 20260507042538 | 58 | 22 | 0.9 | 2.6 | 0.00 | 0.00 | 0.00 | 77 | 1021.7 |
| 20260507042041 | 58 | 18 | 0.0 | 2.6 | 0.00 | 0.00 | 0.00 | 77 | 1021.6 |
| 20260507041556 | 58 | 329 | 0.0 | 1.7 | 0.00 | 0.00 | 0.00 | 78 | 1021.6 |
| 20260507041038 | 58 | 0 | 0.0 | 1.7 | 0.00 | 0.00 | 0.00 | 78 | 1021.5 |
| 20260507040541 | 58 | 0 | 0.0 | 1.7 | 0.00 | 0.00 | 0.00 | 78 | 1021.4 |
| 20260507040051 | 58 | 329 | 0.0 | 1.7 | 0.00 | 0.00 | 0.00 | 78 | 1021.4 |
| 20260507035537 | 58 | 0 | 0.0 | 2.6 | 0.00 | 0.00 | 0.00 | 78 | 1021.4 |
| 20260507035039 | 58 | 0 | 0.0 | 2.6 | 0.00 | 0.00 | 0.00 | 78 | 1021.3 |
| 20260507034547 | 59 | 39 | 0.0 | 2.6 | 0.00 | 0.00 | 0.00 | 78 | 1021.2 |
| 20260507034036 | 59 | 39 | 0.9 | 1.7 | 0.00 | 0.00 | 0.00 | 78 | 1021.2 |
| 20260507033539 | 59 | 39 | 0.0 | 0.9 | 0.00 | 0.00 | 0.00 | 77 | 1021.0 |
| 20260507033048 | 59 | 0 | 0.0 | 0.9 | 0.00 | 0.00 | 0.00 | 77 | 1021.0 |
| 20260507032539 | 60 | 0 | 0.0 | 0.9 | 0.00 | 0.00 | 0.00 | 76 | 1020.9 |
| 20260507032039 | 60 | 0 | 0.0 | 0.9 | 0.00 | 0.00 | 0.00 | 75 | 1020.8 |
| 20260507031548 | 60 | 0 | 0.0 | 0.9 | 0.00 | 0.00 | 0.00 | 75 | 1020.7 |
| 20260507031038 | 61 | 0 | 0.0 | 0.9 | 0.00 | 0.00 | 0.00 | 75 | 1020.6 |
| 20260507030539 | 61 | 0 | 0.0 | 0.9 | 0.00 | 0.00 | 0.00 | 75 | 1020.6 |
| 20260507030051 | 62 | 0 | 0.0 | 0.9 | 0.00 | 0.00 | 0.00 | 74 | 1020.5 |
| 20260507025538 | 62 | 0 | 0.0 | 0.9 | 0.00 | 0.00 | 0.00 | 74 | 1020.4 |
| 20260507025040 | 62 | 0 | 0.0 | 1.7 | 0.00 | 0.00 | 0.00 | 74 | 1020.4 |
| 20260507024555 | 62 | 0 | 0.0 | 1.7 | 0.00 | 0.00 | 0.00 | 73 | 1020.3 |
| 20260507024038 | 63 | 39 | 0.0 | 0.9 | 0.00 | 0.00 | 0.00 | 74 | 1020.3 |
| 20260507023537 | 63 | 39 | 0.0 | 0.9 | 0.00 | 0.00 | 0.00 | 73 | 1020.3 |
| 20260507023104 | 63 | 0 | 0.0 | 1.7 | 0.00 | 0.00 | 0.00 | 73 | 1020.2 |
| 20260507022538 | 64 | 0 | 0.0 | 1.7 | 0.00 | 0.00 | 0.00 | 72 | 1020.2 |
| 20260507022038 | 64 | 0 | 0.0 | 0.9 | 0.00 | 0.00 | 0.00 | 71 | 1020.2 |
| 20260507021554 | 65 | 39 | 0.0 | 1.7 | 0.00 | 0.00 | 0.00 | 70 | 1020.2 |
| 20260507021037 | 65 | 38 | 0.0 | 1.7 | 0.00 | 0.00 | 0.00 | 71 | 1020.2 |
| 20260507020538 | 65 | 0 | 0.0 | 1.7 | 0.00 | 0.00 | 0.00 | 71 | 1020.2 |
| 20260507020058 | 66 | 38 | 0.0 | 1.7 | 0.00 | 0.00 | 0.00 | 71 | 1020.3 |
| 20260507015538 | 66 | 0 | 0.0 | 2.6 | 0.00 | 0.00 | 0.00 | 71 | 1020.2 |
| 20260507015038 | 66 | 30 | 0.9 | 2.6 | 0.00 | 0.00 | 0.00 | 70 | 1020.3 |
| 20260507014549 | 66 | 0 | 0.9 | 2.6 | 0.00 | 0.00 | 0.00 | 69 | 1020.3 |
| 20260507014038 | 67 | 0 | 0.9 | 2.6 | 0.00 | 0.00 | 0.00 | 69 | 1020.4 |
| 20260507013538 | 67 | 144 | 0.0 | 1.7 | 0.00 | 0.00 | 0.00 | 71 | 1020.3 |
| 20260507013049 | 67 | 144 | 0.0 | 1.7 | 0.00 | 0.00 | 0.00 | 71 | 1020.2 |
| 20260507012542 | 68 | 144 | 0.9 | 1.7 | 0.00 | 0.00 | 0.00 | 71 | 1020.2 |
| 20260507012038 | 68 | 144 | 0.0 | 1.7 | 0.00 | 0.00 | 0.00 | 70 | 1020.2 |
| 20260507011550 | 68 | 146 | 0.9 | 1.7 | 0.00 | 0.00 | 0.00 | 70 | 1020.1 |
| 20260507011038 | 68 | 0 | 0.0 | 0.9 | 0.00 | 0.00 | 0.00 | 69 | 1020.1 |
| 20260507010538 | 68 | 0 | 0.0 | 0.9 | 0.00 | 0.00 | 0.00 | 67 | 1020.2 |
| 20260507010054 | 68 | 0 | 0.0 | 0.9 | 0.00 | 0.00 | 0.00 | 67 | 1020.2 |
| 20260507005537 | 69 | 0 | 0.0 | 1.7 | 0.00 | 0.00 | 0.00 | 66 | 1020.2 |
| 20260507005037 | 69 | 0 | 0.0 | 1.7 | 0.00 | 0.00 | 0.00 | 69 | 1020.2 |
| 20260507004548 | 69 | 0 | 0.0 | 1.7 | 0.00 | 0.00 | 0.00 | 68 | 1020.1 |
| 20260507004038 | 69 | 0 | 0.0 | 1.7 | 0.00 | 0.00 | 0.00 | 65 | 1020.2 |
| 20260507003538 | 69 | 0 | 0.0 | 2.6 | 0.00 | 0.00 | 0.00 | 68 | 1020.2 |
| 20260507003113 | 69 | 0 | 0.0 | 2.6 | 0.00 | 0.00 | 0.00 | 67 | 1020.2 |
| 20260507002540 | 69 | 0 | 0.0 | 2.6 | 0.00 | 0.00 | 0.00 | 65 | 1020.2 |
| 20260507002038 | 70 | 116 | 0.9 | 2.6 | 0.00 | 0.00 | 0.00 | 67 | 1020.2 |
| 20260507001612 | 69 | 146 | 0.0 | 1.7 | 0.00 | 0.00 | 0.00 | 68 | 1020.2 |
| 20260507001037 | 69 | 0 | 0.0 | 2.6 | 0.00 | 0.00 | 0.00 | 68 | 1020.2 |
| 20260507000543 | 68 | 147 | 0.9 | 3.5 | 0.00 | 0.00 | 0.00 | 67 | 1020.2 |
| 20260507000051 | 68 | 64 | 0.9 | 3.5 | 0.00 | 0.00 | 0.00 | 72 | 1020.2 |
| 20260506235540 | 67 | 0 | 0.0 | 3.5 | 0.00 | 0.00 | 0.00 | 69 | 1020.2 |
| 20260506235039 | 67 | 162 | 0.9 | 3.5 | 0.00 | 0.00 | 0.00 | 67 | 1020.3 |
| 20260506234554 | 67 | 0 | 0.0 | 1.7 | 0.00 | 0.00 | 0.00 | 68 | 1020.3 |
| 20260506234039 | 67 | 0 | 0.0 | 1.7 | 0.00 | 0.00 | 0.00 | 69 | 1020.3 |
| 20260506233539 | 67 | 330 | 0.0 | 2.6 | 0.00 | 0.00 | 0.00 | 69 | 1020.4 |
| 20260506233047 | 67 | 0 | 0.9 | 2.6 | 0.00 | 0.00 | 0.00 | 68 | 1020.4 |
| 20260506232539 | 67 | 65 | 0.9 | 3.5 | 0.00 | 0.00 | 0.00 | 67 | 1020.3 |
| 20260506232038 | 67 | 260 | 0.9 | 3.5 | 0.00 | 0.00 | 0.00 | 69 | 1020.3 |
| 20260506231604 | 67 | 173 | 0.9 | 3.5 | 0.00 | 0.00 | 0.00 | 68 | 1020.5 |
| 20260506231037 | 66 | 78 | 0.9 | 2.6 | 0.00 | 0.00 | 0.00 | 70 | 1020.6 |
| 20260506230540 | 66 | 0 | 0.0 | 4.3 | 0.00 | 0.00 | 0.00 | 71 | 1020.6 |
| 20260506230104 | 66 | 199 | 1.7 | 5.2 | 0.00 | 0.00 | 0.00 | 69 | 1020.6 |
| 20260506225539 | 66 | 164 | 0.9 | 5.2 | 0.00 | 0.00 | 0.00 | 71 | 1020.6 |
| 20260506225039 | 66 | 168 | 0.9 | 4.3 | 0.00 | 0.00 | 0.00 | 70 | 1020.7 |
| 20260506224549 | 65 | 182 | 0.9 | 5.2 | 0.00 | 0.00 | 0.00 | 74 | 1020.7 |
| 20260506224038 | 65 | 152 | 1.7 | 5.2 | 0.00 | 0.00 | 0.00 | 73 | 1020.8 |